Weather History for Kirksville, MO

Change the Weather History Date:

Tuesday, April 9, 2013

  Actual Average Record
Temperature  
Mean Temperature 68 °F 50 °F  
Max Temperature 76 °F 61 °F 84 °F (2011)
Min Temperature 59 °F 39 °F 19 °F (1928)
Degree Days  
Heating Degree Days 0 15  
Month to date heating degree days 142 150  
Since 1 July heating degree days 5504 5437  
Cooling Degree Days 3 0  
Month to date cooling degree days 3 0  
Year to date cooling degree days 3 0  
Growing Degree Days 18 (Base 50)    
Moisture  
Dew Point 58 °F    
Average Humidity 72    
Maximum Humidity 90    
Minimum Humidity 54    
Precipitation  
Precipitation 0.00 in 0.09 in 1.10 in (1942)
Month to date precipitation 0.64 0.70  
Year to date precipitation 9.43 6.05  
Sea Level Pressure  
Sea Level Pressure 29.77 in    
Wind  
Wind Speed 11 mph (South)    
Max Wind Speed 22 mph    
Max Gust Speed 30 mph    
Visibility 10 miles    
Events      
T = Trace of Precipitation, MM = Missing Value Source: NWS Daily Summary

Daily Weather History Graph

Daily Weather History Graph

Search for Another Location

Airport:

Trip Planner

Search our weather history database for the weather conditions in past years. The results will help you decide how hot, cold, wet, or windy it might be!

Date:

Astronomy

Apr. 09, 2013 Rise Set
Actual Time 6:40 AM CDT 7:42 PM CDT
Civil Twilight 6:13 AM CDT 8:10 PM CDT
Nautical Twilight 5:40 AM CDT 8:43 PM CDT
Astronomical Twilight 5:05 AM CDT 9:18 PM CDT
Moon 6:03 AM CDT (4/9) 7:19 PM CDT (4/9)
Length of Visible Light 13h 57m
Length of Day
13h 01m
Waning Crescent, 1% of the Moon is Illuminated
Apr 9
Waning Crescent
Apr 10
New
Apr 18
First Quarter
Apr 25
Full
May 2
Last Quarter

Hourly Weather History & Observations

Time (CDT) Temp. Dew Point Humidity Pressure Visibility Wind Dir Wind Speed Gust Speed Precip Events Conditions
12:55 AM 62.1 °F 57.9 °F 86% 29.79 in 10.0 mi SE 8.1 mph - N/A   Overcast
1:55 AM 60.1 °F 57.0 °F 90% 29.76 in 10.0 mi SSE 9.2 mph - N/A   Mostly Cloudy
2:55 AM 61.0 °F 57.0 °F 87% 29.75 in 10.0 mi SE 5.8 mph - N/A   Overcast
3:55 AM 62.1 °F 57.9 °F 86% 29.75 in 10.0 mi SE 6.9 mph - N/A   Overcast
4:55 AM 62.1 °F 57.9 °F 86% 29.75 in 10.0 mi SE 8.1 mph - N/A   Overcast
5:55 AM 61.0 °F 57.0 °F 87% 29.75 in 10.0 mi SE 10.4 mph - N/A   Overcast
6:55 AM 61.0 °F 57.0 °F 87% 29.76 in 10.0 mi SSE 9.2 mph - N/A   Overcast
7:55 AM 62.1 °F 57.9 °F 86% 29.77 in 10.0 mi SSE 12.7 mph - N/A   Mostly Cloudy
8:55 AM 66.0 °F 59.0 °F 78% 29.76 in 10.0 mi SSE 12.7 mph - N/A   Scattered Clouds
9:55 AM 70.0 °F 57.9 °F 65% 29.78 in 10.0 mi SSW 15.0 mph 23.0 mph N/A   Scattered Clouds
10:55 AM 71.1 °F 57.9 °F 63% 29.79 in 10.0 mi SSW 12.7 mph 20.7 mph N/A   Overcast
11:55 AM 73.0 °F 57.9 °F 59% 29.80 in 10.0 mi SW 13.8 mph 27.6 mph N/A   Scattered Clouds
12:55 PM 73.9 °F 57.9 °F 57% 29.78 in 10.0 mi South 16.1 mph 25.3 mph N/A   Clear
1:55 PM 75.0 °F 57.9 °F 55% 29.77 in 10.0 mi SSW 16.1 mph 28.8 mph N/A   Partly Cloudy
2:55 PM 73.9 °F 59.0 °F 59% 29.76 in 10.0 mi SSW 18.4 mph 24.2 mph N/A   Scattered Clouds
3:55 PM 75.9 °F 60.1 °F 58% 29.75 in 10.0 mi SSW 15.0 mph 23.0 mph N/A   Partly Cloudy
4:55 PM 75.0 °F 59.0 °F 57% 29.75 in 10.0 mi SSW 12.7 mph 19.6 mph N/A   Mostly Cloudy
5:55 PM 73.9 °F 59.0 °F 59% 29.75 in 10.0 mi South 10.4 mph - N/A   Mostly Cloudy
6:55 PM 72.0 °F 59.0 °F 64% 29.75 in 10.0 mi South 9.2 mph - N/A   Partly Cloudy
7:55 PM 70.0 °F 60.1 °F 71% 29.77 in 10.0 mi SSW 8.1 mph - N/A   Mostly Cloudy
8:55 PM 69.1 °F 60.1 °F 73% 29.79 in 10.0 mi South 6.9 mph - N/A   Mostly Cloudy
9:55 PM 66.0 °F 60.1 °F 81% 29.79 in 10.0 mi SSE 5.8 mph - N/A   Mostly Cloudy
10:55 PM 63.0 °F 59.0 °F 87% 29.76 in 9.0 mi SE 6.9 mph - N/A   Scattered Clouds
11:55 PM 61.0 °F 57.9 °F 90% 29.75 in 8.0 mi SSE 3.5 mph - N/A   Clear